Flag for Canada Weather past 2 weeks in Rouyn-Noranda, Quebec, Canada

Now
54 °F

Broken clouds.


Feels Like: 51 °F
Forecast: 49 / 69 °F
Wind: 8 mph from Southwest

Location: Rouyn Airport

Current Time: Jul 24, 2014 at 10:11:38 AM

Latest Report: Jul 24, 2014 at 9:00 AM


Visibility: 15 mi

Pressure: 29.98 "Hg

Humidity: 88%

Dew point: 50 °F

Location of Rouyn-NorandaLocation

Historic Weather in Rouyn-Noranda — Graph

°F

Rouyn-Noranda temperature yesterday

Maximum temperature yesterday: 72 °F (at 12:00 AM)
Minimum temperature yesterday: 46 °F (at 11:00 PM)
Average temperature yesterday: 58 °F

Past Weeks' High & Low Weather Summary

 TemperatureHumidityPressure
High79 °F (Jul 18, 5:00 PM)100% (Jul 9, 8:00 PM)30.20 "Hg (Jul 9, 8:00 PM)
Low43 °F (Jul 24, 12:00 AM)39% (Jul 19, 2:00 PM)29.55 "Hg (Jul 13, 3:00 PM)
Average62 °F77%29.94 "Hg
* Reported Jul 9 8:00 AM — Jul 24 8:00 AM, Rouyn-Noranda, Weather by CustomWeather, © 2014

Note: Actual official high and low records may vary slightly from our data, if they occured in-between our weather recording intervals... More about our weather records

Advertising

Rouyn-Noranda weather history for July 10, 2014

 ConditionsComfort  
Time TempWeatherWind HumidityBarometerVisibility
12:00 AM
Jul 10
50 °FMostly cloudy.8 mph100%29.91 "Hg15 mi
1:00 AM52 °FPassing clouds.8 mph94%29.93 "Hg15 mi
2:00 AM52 °FPassing clouds.9 mph88%29.95 "Hg15 mi
3:00 AM50 °FPassing clouds.6 mph94%29.98 "Hg15 mi
4:00 AM48 °FPartly cloudy.6 mph94%30.00 "Hg15 mi
5:00 AM46 °FPartly cloudy.5 mph100%30.03 "Hg15 mi
6:00 AM46 °FPassing clouds.2 mph100%30.06 "Hg15 mi
7:00 AM50 °FFog.3 mph94%30.09 "Hg15 mi
8:00 AM52 °FPartly sunny.6 mph94%30.11 "Hg15 mi
9:00 AM55 °FBroken clouds.7 mph82%30.13 "Hg15 mi
10:00 AM59 °FPartly sunny.5 mph68%30.14 "Hg15 mi
11:00 AM63 °FScattered clouds.8 mph64%30.15 "Hg15 mi
12:00 PM64 °FPassing clouds.6 mph64%30.14 "Hg15 mi
1:00 PM68 °FPassing clouds.8 mph49%30.15 "Hg15 mi
2:00 PM70 °FPassing clouds.8 mph43%30.14 "Hg15 mi
3:00 PM70 °FScattered clouds.9 mph40%30.14 "Hg15 mi
4:00 PM70 °FScattered clouds.3 mph43%30.14 "Hg15 mi
5:00 PM72 °FPassing clouds.3 mph41%30.14 "Hg15 mi
6:00 PM70 °FScattered clouds.9 mph43%30.13 "Hg15 mi
7:00 PM68 °FScattered clouds.8 mph49%30.12 "Hg15 mi
8:00 PM64 °FScattered clouds.5 mph60%30.13 "Hg15 mi
9:00 PM63 °FScattered clouds.No wind68%30.13 "Hg15 mi
10:00 PM59 °FPassing clouds.7 mph72%30.13 "Hg15 mi
11:00 PM57 °FPassing clouds.6 mph77%30.14 "Hg15 mi
Weather by CustomWeather, © 2014

See weather overviewHow to use our weather pages